• In Portugal
  • List of Countries
  • For 7 days
  • Water Temperature
  • Satellite Maps
  • Weather Map
  • Weather Widgets
  • user-avatar
    Login

    Hourly Weather Corozal

    Today, 25 September, Monday

    Time Temperature Precipitation Wind Pressure Humidity
    00:00 +27°C° 0 mm 2 mps 755 mmHg 94%
    01:00 +27°C° 0 mm 2 mps 755 mmHg 95%
    02:00 +27°C° 0 mm 2 mps 755 mmHg 95%
    03:00 +26°C° 0 mm 1 mps 754 mmHg 95%
    04:00 +26°C° 0.1 mm 1 mps 754 mmHg 95%
    05:00 +26°C° 0.1 mm 1 mps 754 mmHg 95%
    06:00 +26°C° 0.1 mm 1 mps 754 mmHg 95%
    07:00 +28°C° 0.2 mm 2 mps 755 mmHg 86%
    08:00 +30°C° 0.2 mm 2 mps 755 mmHg 78%
    09:00 +32°C° 0.2 mm 2 mps 755 mmHg 69%
    10:00 +32°C° 0.9 mm 2 mps 755 mmHg 72%
    11:00 +33°C° 0.9 mm 3 mps 755 mmHg 75%
    12:00 +33°C° 0.9 mm 3 mps 754 mmHg 78%
    13:00 +33°C° 0.6 mm 3 mps 754 mmHg 76%
    14:00 +34°C° 0.6 mm 3 mps 753 mmHg 73%
    15:00 +34°C° 0.6 mm 3 mps 753 mmHg 70%
    16:00 +31°C° 0.1 mm 3 mps 753 mmHg 75%
    17:00 +30°C° 0.1 mm 3 mps 753 mmHg 79%
    18:00 +29°C° 0.1 mm 2 mps 753 mmHg 84%
    19:00 +28°C° 0.2 mm 2 mps 754 mmHg 87%
    20:00 +28°C° 0.2 mm 2 mps 754 mmHg 89%
    21:00 +27°C° 0.2 mm 2 mps 754 mmHg 92%
    22:00 +27°C° 0.9 mm 2 mps 754 mmHg 94%
    23:00 +27°C° 0.9 mm 2 mps 754 mmHg 96%

    Tomorrow, 26 September, Tuesday

    Time Temperature Precipitation Wind Pressure Humidity
    00:00 +26°C° 0.9 mm 2 mps 754 mmHg 97%
    01:00 +26°C° 0.5 mm 2 mps 754 mmHg 97%
    02:00 +26°C° 0.5 mm 2 mps 754 mmHg 97%
    03:00 +26°C° 0.5 mm 2 mps 753 mmHg 97%
    04:00 +26°C° 1.3 mm 2 mps 754 mmHg 97%
    05:00 +26°C° 1.3 mm 2 mps 754 mmHg 97%
    06:00 +26°C° 1.3 mm 2 mps 754 mmHg 97%
    07:00 +27°C° 1 mm 2 mps 754 mmHg 95%
    08:00 +28°C° 1 mm 3 mps 755 mmHg 93%
    09:00 +29°C° 1 mm 3 mps 755 mmHg 92%
    10:00 +29°C° 1.5 mm 3 mps 755 mmHg 91%
    11:00 +30°C° 1.5 mm 2 mps 755 mmHg 90%
    12:00 +30°C° 1.5 mm 2 mps 755 mmHg 89%
    13:00 +31°C° 0.2 mm 2 mps 754 mmHg 82%
    14:00 +31°C° 0.2 mm 2 mps 754 mmHg 76%
    15:00 +32°C° 0.2 mm 2 mps 753 mmHg 70%
    16:00 +31°C° 0.2 mm 2 mps 753 mmHg 77%
    17:00 +30°C° 0.2 mm 2 mps 753 mmHg 83%
    18:00 +29°C° 0.2 mm 2 mps 753 mmHg 90%
    19:00 +28°C° 1.5 mm 2 mps 754 mmHg 93%
    20:00 +28°C° 1.5 mm 2 mps 754 mmHg 95%
    21:00 +28°C° 1.5 mm 2 mps 755 mmHg 98%
    22:00 +28°C° 0.8 mm 2 mps 755 mmHg 98%
    23:00 +28°C° 0.8 mm 2 mps 754 mmHg 97%

    Day after tomorrow, 27 September, Wednesday

    Time Temperature Precipitation Wind Pressure Humidity
    00:00 +28°C° 0.8 mm 2 mps 754 mmHg 97%
    01:00 +28°C° 1.3 mm 2 mps 754 mmHg 97%
    02:00 +27°C° 1.3 mm 2 mps 754 mmHg 97%
    03:00 +27°C° 1.3 mm 2 mps 753 mmHg 97%
    04:00 +27°C° 1.4 mm 2 mps 753 mmHg 97%
    05:00 +27°C° 1.4 mm 2 mps 753 mmHg 98%
    06:00 +27°C° 1.4 mm 2 mps 753 mmHg 98%
    07:00 +28°C° 1 mm 2 mps 754 mmHg 95%
    08:00 +29°C° 1 mm 2 mps 755 mmHg 93%
    09:00 +30°C° 1 mm 2 mps 755 mmHg 91%
    10:00 +31°C° 0.2 mm 2 mps 755 mmHg 85%
    11:00 +32°C° 0.2 mm 2 mps 755 mmHg 80%
    12:00 +34°C° 0.2 mm 2 mps 754 mmHg 74%
    13:00 +34°C° 0.4 mm 2 mps 754 mmHg 74%
    14:00 +34°C° 0.4 mm 2 mps 753 mmHg 74%
    15:00 +34°C° 0.4 mm 2 mps 753 mmHg 74%
    16:00 +32°C° 0.2 mm 2 mps 753 mmHg 79%
    17:00 +31°C° 0.2 mm 2 mps 754 mmHg 85%
    18:00 +29°C° 0.2 mm 2 mps 754 mmHg 90%
    19:00 +29°C° 0.7 mm 2 mps 754 mmHg 93%
    20:00 +28°C° 0.7 mm 2 mps 755 mmHg 95%
    21:00 +28°C° 0.7 mm 2 mps 756 mmHg 98%
    22:00 +28°C° 0.8 mm 2 mps 755 mmHg 98%
    23:00 +28°C° 0.8 mm 2 mps 755 mmHg 98%

    28 September, Thursday

    Time Temperature Precipitation Wind Pressure Humidity
    00:00 +28°C° 0.8 mm 2 mps 755 mmHg 98%
    01:00 +27°C° 0.2 mm 2 mps 754 mmHg 98%
    02:00 +27°C° 0.2 mm 2 mps 754 mmHg 98%
    03:00 +27°C° 0.2 mm 1 mps 754 mmHg 98%
    04:00 +27°C° 0.1 mm 1 mps 754 mmHg 98%
    05:00 +27°C° 0.1 mm 1 mps 754 mmHg 98%
    06:00 +27°C° 0.1 mm 1 mps 755 mmHg 98%
    07:00 +28°C° 0.6 mm 2 mps 755 mmHg 94%
    08:00 +30°C° 0.6 mm 2 mps 756 mmHg 91%
    09:00 +31°C° 0.6 mm 2 mps 756 mmHg 88%
    10:00 +31°C° 0.3 mm 2 mps 756 mmHg 84%
    11:00 +32°C° 0.3 mm 2 mps 755 mmHg 80%
    12:00 +32°C° 0.3 mm 2 mps 755 mmHg 76%
    13:00 +32°C° 0.2 mm 2 mps 754 mmHg 76%
    14:00 +32°C° 0.2 mm 2 mps 754 mmHg 76%
    15:00 +32°C° 0.2 mm 2 mps 753 mmHg 77%
    16:00 +31°C° 0 mm 2 mps 754 mmHg 81%
    17:00 +30°C° 0 mm 2 mps 754 mmHg 85%
    18:00 +29°C° 0 mm 2 mps 755 mmHg 89%
    19:00 +29°C° 0 mm 2 mps 755 mmHg 90%
    20:00 +28°C° 0 mm 2 mps 756 mmHg 92%
    21:00 +28°C° 0 mm 2 mps 756 mmHg 93%
    22:00 +28°C° 0.3 mm 2 mps 756 mmHg 94%
    23:00 +27°C° 0.3 mm 2 mps 756 mmHg 95%

    29 September, Friday

    Time Temperature Precipitation Wind Pressure Humidity
    00:00 +27°C° 0.3 mm 2 mps 755 mmHg 95%
    01:00 +27°C° 0.2 mm 2 mps 755 mmHg 96%
    02:00 +27°C° 0.2 mm 2 mps 755 mmHg 96%
    03:00 +27°C° 0.2 mm 1 mps 755 mmHg 96%
    04:00 +27°C° 0.4 mm 1 mps 755 mmHg 96%
    05:00 +27°C° 0.4 mm 1 mps 755 mmHg 96%
    06:00 +27°C° 0.4 mm 1 mps 756 mmHg 97%
    07:00 +28°C° 0.5 mm 2 mps 756 mmHg 91%
    08:00 +30°C° 0.5 mm 2 mps 756 mmHg 85%
    09:00 +31°C° 0.5 mm 2 mps 757 mmHg 79%
    10:00 +32°C° 0.1 mm 2 mps 756 mmHg 74%
    11:00 +34°C° 0.1 mm 2 mps 756 mmHg 69%
    12:00 +35°C° 0.1 mm 2 mps 755 mmHg 64%
    13:00 +34°C° 0 mm 3 mps 755 mmHg 65%
    14:00 +34°C° 0 mm 3 mps 754 mmHg 67%
    15:00 +34°C° 0 mm 3 mps 754 mmHg 68%
    16:00 +33°C° 0 mm 3 mps 754 mmHg 74%
    17:00 +31°C° 0 mm 3 mps 755 mmHg 80%
    18:00 +29°C° 0 mm 2 mps 755 mmHg 86%
    19:00 +29°C° 0 mm 3 mps 756 mmHg 88%
    20:00 +29°C° 0 mm 3 mps 756 mmHg 89%
    21:00 +28°C° 0 mm 3 mps 756 mmHg 90%
    22:00 +28°C° 0.1 mm 3 mps 756 mmHg 92%
    23:00 +28°C° 0.1 mm 3 mps 756 mmHg 93%

    30 September, Saturday

    Time Temperature Precipitation Wind Pressure Humidity
    00:00 +28°C° 0.1 mm 2 mps 755 mmHg 95%
    01:00 +28°C° 0.2 mm 2 mps 755 mmHg 95%
    02:00 +27°C° 0.2 mm 2 mps 755 mmHg 95%
    03:00 +27°C° 0.2 mm 2 mps 755 mmHg 96%
    04:00 +27°C° 0.6 mm 2 mps 755 mmHg 96%
    05:00 +27°C° 0.6 mm 2 mps 755 mmHg 97%
    06:00 +27°C° 0.6 mm 2 mps 756 mmHg 97%
    07:00 +28°C° 1.4 mm 2 mps 756 mmHg 94%
    08:00 +29°C° 1.4 mm 3 mps 756 mmHg 91%
    09:00 +30°C° 1.4 mm 3 mps 757 mmHg 88%
    10:00 +30°C° 1 mm 3 mps 756 mmHg 88%
    11:00 +30°C° 1 mm 3 mps 756 mmHg 87%
    12:00 +31°C° 1 mm 2 mps 756 mmHg 87%
    13:00 +31°C° 0.6 mm 2 mps 755 mmHg 87%
    14:00 +30°C° 0.6 mm 2 mps 755 mmHg 87%
    15:00 +30°C° 0.6 mm 2 mps 754 mmHg 87%
    16:00 +30°C° 0.3 mm 2 mps 755 mmHg 90%
    17:00 +29°C° 0.3 mm 2 mps 755 mmHg 93%
    18:00 +28°C° 0.3 mm 2 mps 755 mmHg 96%
    19:00 +28°C° 0.1 mm 2 mps 756 mmHg 96%
    20:00 +28°C° 0.1 mm 2 mps 756 mmHg 97%
    21:00 +27°C° 0.1 mm 2 mps 756 mmHg 97%
    22:00 +27°C° 0.4 mm 2 mps 756 mmHg 98%
    23:00 +27°C° 0.4 mm 2 mps 756 mmHg 98%
    Show more